This is the latest recevied weather packets stored in our database for station/object N8QQQ. If no packets are shown the sender has not sent any weather packets the latest 10 day(s).
| Time | Temp. | Humidity | Pressure | Rain* | Wind** | Luminosity | Snow |
|---|---|---|---|---|---|---|---|
| 1778094137 | 3.33° C | 57% | 1011.8 hPa | 0 mm | - | 91 W/m² | - |
| 1778093834 | 3.33° C | 57% | 1011.8 hPa | 0 mm | - | 84 W/m² | - |
| 1778093530 | 3.89° C | 55% | 1011.8 hPa | 0 mm | - | 83 W/m² | - |
| 1778093228 | 3.89° C | 54% | 1011.8 hPa | 0 mm | - | 89 W/m² | - |
| 1778092925 | 3.89° C | 54% | 1011.7 hPa | 0 mm | - | 139 W/m² | - |
| 1778092621 | 3.89° C | 55% | 1011.6 hPa | 0 mm | - | 179 W/m² | - |
| 1778092317 | 3.33° C | 58% | 1011.7 hPa | 0 mm | - | 175 W/m² | - |
| 1778092015 | 3.89° C | 58% | 1011.7 hPa | 0 mm | - | 121 W/m² | - |
| 1778091711 | 3.89° C | 53% | 1011.8 hPa | 0 mm | - | 139 W/m² | - |
| 1778091404 | 3.89° C | 52% | 1011.8 hPa | 0 mm | - | 142 W/m² | - |
| 1778091101 | 4.44° C | 51% | 1011.6 hPa | 0 mm | - | 176 W/m² | - |
| 1778090798 | 3.89° C | 53% | 1011.6 hPa | 0 mm | - | 229 W/m² | - |
| 1778090494 | 3.89° C | 55% | 1011.8 hPa | 0 mm | - | 206 W/m² | - |
| 1778090191 | 3.33° C | 56% | 1011.8 hPa | 0 mm | - | 224 W/m² | - |
| 1778089887 | 2.78° C | 58% | 1012 hPa | 0 mm | - | 160 W/m² | - |
| 1778089586 | 2.78° C | 57% | 1011.9 hPa | 0 mm | - | 122 W/m² | - |
| 1778089282 | 3.33° C | 57% | 1011.9 hPa | 0 mm | - | 123 W/m² | - |
| 1778088980 | 3.33° C | 57% | 1011.9 hPa | 0 mm | - | 117 W/m² | - |
| 1778088676 | 2.78° C | 58% | 1011.9 hPa | 0 mm | - | 125 W/m² | - |
| 1778088374 | 2.78° C | 59% | 1012.2 hPa | 0 mm | - | 136 W/m² | - |
| 1778088070 | 2.78° C | 62% | 1011.9 hPa | 0 mm | - | 83 W/m² | - |
| 1778087768 | 2.78° C | 61% | 1012.2 hPa | 0 mm | - | 75 W/m² | - |
| 1778087465 | 3.33° C | 58% | 1011.9 hPa | 0 mm | - | 87 W/m² | - |
| 1778087161 | 2.78° C | 57% | 1012.3 hPa | 0 mm | - | 105 W/m² | - |
| 1778086854 | 2.78° C | 57% | 1011.9 hPa | 0 mm | - | 117 W/m² | - |
* Rain latest hour (hover to see other rain measurements)
** Current wind speed in m/s (hover to see current wind gust speed)